Weather History for Fort Payne, AL

Change the Weather History Date:

Thursday, December 19, 2013

  Actual Average (KRMG) Record (KRMG)
Temperature  
Mean Temperature 43 °F 42 °F  
Max Temperature 60 °F 52 °F 68 °F (2006)
Min Temperature 26 °F 32 °F 17 °F (2000)
Degree Days  
Heating Degree Days 22 23  
Month to date heating degree days 408  
Since 1 July heating degree days 1015  
Moisture  
Dew Point 26 °F    
Average Humidity 62    
Maximum Humidity 93    
Minimum Humidity 19    
Precipitation  
Precipitation 0.00 in 0.13 in 0.72 in (2002)
Month to date precipitation 3.17  
Snow  
Snow 0.00 in - - ()
Month to date snowfall  
Since 1 July snowfall  
Snow Depth -    
Sea Level Pressure  
Sea Level Pressure 30.22 in    
Wind  
Wind Speed 1 mph (SSW)    
Max Wind Speed 10 mph    
Max Gust Speed -    
Visibility 10 miles    
Events      
T = Trace of Precipitation, MM = Missing Value Source: NWS Daily Summary

Daily Weather History Graph

Daily Weather History Graph

Search for Another Location

Airport:

Trip Planner

Search our weather history database for the weather conditions in past years. The results will help you decide how hot, cold, wet, or windy it might be!

Date:

Astronomy

Dec. 19, 2013 Rise Set
Actual Time 6:44 AM CST 4:35 PM CST
Civil Twilight 6:16 AM CST 5:03 PM CST
Nautical Twilight 5:45 AM CST 5:35 PM CST
Astronomical Twilight 5:14 AM CST 6:05 PM CST
Moon 6:55 PM CST (12/19) 8:07 AM CST (12/19)
Length of Visible Light 10h 46m
Length of Day
9h 50m
Waning Gibbous, 95% of the Moon is Illuminated
Dec 19
Waning Gibbous
Dec 25
Last Quarter
Jan 1
New
Jan 7
First Quarter
Jan 15
Full

Hourly Weather History & Observations

Time (CST) Temp. Windchill Dew Point Humidity Pressure Visibility Wind Dir Wind Speed Gust Speed Precip Events Conditions
12:15 AM 30.2 °F - 26.6 °F 86% 30.26 in 10.0 mi Calm Calm - N/A   Clear
12:35 AM 30.2 °F - 26.6 °F 86% 30.25 in 10.0 mi Calm Calm - N/A   Clear
12:55 AM 28.4 °F - 24.8 °F 86% 30.25 in 10.0 mi Calm Calm - N/A   Clear
1:15 AM 28.4 °F - 24.8 °F 86% 30.25 in 10.0 mi Calm Calm - N/A   Clear
1:35 AM 28.4 °F - 26.6 °F 93% 30.26 in 10.0 mi Calm Calm - N/A   Clear
1:55 AM 28.4 °F - 26.6 °F 93% 30.26 in 10.0 mi Calm Calm - N/A   Clear
2:15 AM 28.4 °F 24.6 °F 26.6 °F 93% 30.26 in 10.0 mi NE 3.5 mph - N/A   Clear
2:35 AM 28.4 °F - 26.6 °F 93% 30.26 in 10.0 mi Calm Calm - N/A   Clear
2:55 AM 28.4 °F - 24.8 °F 86% 30.25 in 10.0 mi Calm Calm - N/A   Clear
3:15 AM 28.4 °F - 26.6 °F 93% 30.25 in 10.0 mi Calm Calm - N/A   Clear
3:35 AM 28.4 °F - 24.8 °F 86% 30.25 in 10.0 mi Calm Calm - N/A   Clear
3:55 AM 28.4 °F 24.6 °F 24.8 °F 86% 30.26 in 10.0 mi NNE 3.5 mph - N/A   Clear
4:15 AM 28.4 °F - 26.6 °F 93% 30.26 in 10.0 mi Calm Calm - N/A   Clear
4:35 AM 28.4 °F - 26.6 °F 93% 30.27 in 10.0 mi Calm Calm - N/A   Clear
4:55 AM 28.4 °F - 24.8 °F 86% 30.27 in 10.0 mi Calm Calm - N/A   Clear
5:15 AM 28.4 °F - 24.8 °F 86% 30.27 in 10.0 mi Calm Calm - N/A   Clear
5:35 AM 28.4 °F - 24.8 °F 86% 30.27 in 10.0 mi Calm Calm - N/A   Clear
5:55 AM 28.4 °F - 24.8 °F 86% 30.27 in 10.0 mi Calm Calm - N/A   Clear
6:15 AM 28.4 °F - 24.8 °F 86% 30.27 in 10.0 mi Calm Calm - N/A   Clear
6:35 AM 26.6 °F - 23.0 °F 86% 30.27 in 10.0 mi Calm Calm - N/A   Clear
6:55 AM 26.6 °F - 24.8 °F 93% 30.27 in 10.0 mi Calm Calm - N/A   Clear
7:15 AM 26.6 °F - 24.8 °F 93% 30.28 in 10.0 mi Calm Calm - N/A   Clear
7:35 AM 28.4 °F - 26.6 °F 93% 30.29 in 10.0 mi Calm Calm - N/A   Clear
7:55 AM 30.2 °F - 26.6 °F 86% 30.30 in 10.0 mi Calm Calm - N/A   Clear
8:15 AM 32.0 °F - 28.4 °F 87% 30.30 in 10.0 mi Calm Calm - N/A   Clear
8:35 AM 33.8 °F - 28.4 °F 81% 30.30 in 10.0 mi Calm Calm - N/A   Clear
8:55 AM 37.4 °F - 28.4 °F 70% 30.30 in 10.0 mi Calm Calm - N/A   Clear
9:15 AM 42.8 °F - 28.4 °F 57% 30.31 in 10.0 mi Calm Calm - N/A   Clear
9:35 AM 46.4 °F - 23.0 °F 40% 30.30 in 10.0 mi Calm Calm - N/A   Clear
9:55 AM 48.2 °F - 23.0 °F 37% 30.30 in 10.0 mi Calm Calm - N/A   Clear
10:15 AM 51.8 °F - 26.6 °F 38% 30.30 in 10.0 mi SW 3.5 mph - N/A   Clear
10:35 AM 53.6 °F - 23.0 °F 30% 30.29 in 10.0 mi SW 4.6 mph - N/A   Clear
10:55 AM 55.4 °F - 26.6 °F 33% 30.28 in 10.0 mi WSW 8.1 mph - N/A   Clear
11:15 AM 55.4 °F - 24.8 °F 31% 30.27 in 10.0 mi WSW 9.2 mph - N/A   Clear
11:35 AM 55.4 °F - 23.0 °F 29% 30.25 in 10.0 mi SW 8.1 mph - N/A   Clear
11:55 AM 59.0 °F - 23.0 °F 25% 30.23 in 10.0 mi SSW 5.8 mph - N/A   Clear
12:15 PM 59.0 °F - 23.0 °F 25% 30.22 in 10.0 mi WSW 9.2 mph - N/A   Clear
12:35 PM 59.0 °F - 19.4 °F 22% 30.21 in 10.0 mi SSW 9.2 mph - N/A   Clear
12:55 PM 59.0 °F - 15.8 °F 19% 30.20 in 10.0 mi SW 10.4 mph - N/A   Clear
1:15 PM 59.0 °F - 17.6 °F 20% 30.20 in 10.0 mi SSW 6.9 mph - N/A   Clear
1:35 PM 59.0 °F - 19.4 °F 22% 30.19 in 10.0 mi SSW 5.8 mph - N/A   Clear
1:55 PM 60.8 °F - 17.6 °F 19% 30.19 in 10.0 mi SW 9.2 mph - N/A   Clear
2:15 PM 60.8 °F - 19.4 °F 20% 30.18 in 10.0 mi South 3.5 mph - N/A   Clear
2:35 PM 60.8 °F - 19.4 °F 20% 30.18 in 10.0 mi SSW 5.8 mph - N/A   Clear
2:55 PM 60.8 °F - 19.4 °F 20% 30.18 in 10.0 mi SSE 4.6 mph - N/A   Clear
3:15 PM 60.8 °F - 19.4 °F 20% 30.18 in 10.0 mi SSE 6.9 mph - N/A   Clear
3:35 PM 59.0 °F - 19.4 °F 22% 30.18 in 10.0 mi Calm Calm - N/A   Clear
3:55 PM 57.2 °F - 21.2 °F 25% 30.18 in 10.0 mi South 3.5 mph - N/A   Clear
4:15 PM 55.4 °F - 23.0 °F 29% 30.18 in 10.0 mi Calm Calm - N/A   Clear
4:35 PM 51.8 °F - 26.6 °F 38% 30.18 in 10.0 mi ESE 3.5 mph - N/A   Clear
4:55 PM 50.0 °F - 28.4 °F 43% 30.18 in 10.0 mi Calm Calm - N/A   Clear
5:15 PM 46.4 °F - 28.4 °F 50% 30.17 in 10.0 mi Calm Calm - N/A   Clear
5:35 PM 44.6 °F - 32.0 °F 61% 30.17 in 10.0 mi Calm Calm - N/A   Clear
5:55 PM 42.8 °F - 32.0 °F 66% 30.16 in 10.0 mi Calm Calm - N/A   Clear
6:15 PM 42.8 °F - 32.0 °F 66% 30.16 in 10.0 mi Calm Calm - N/A   Clear
6:35 PM 42.8 °F - 32.0 °F 66% 30.16 in 10.0 mi Calm Calm - N/A   Clear
6:55 PM 41.0 °F - 32.0 °F 70% 30.16 in 10.0 mi Calm Calm - N/A   Clear
7:15 PM 41.0 °F - 32.0 °F 70% 30.17 in 10.0 mi Calm Calm - N/A   Clear
7:35 PM 41.0 °F - 32.0 °F 70% 30.16 in 10.0 mi Calm Calm - N/A   Clear
7:55 PM 41.0 °F - 32.0 °F 70% 30.16 in 10.0 mi Calm Calm - N/A   Clear
8:15 PM 39.2 °F - 32.0 °F 75% 30.16 in 10.0 mi Calm Calm - N/A   Clear
8:35 PM 42.8 °F - 30.2 °F 61% 30.16 in 10.0 mi Calm Calm - N/A   Clear
8:55 PM 41.0 °F - 30.2 °F 65% 30.16 in 10.0 mi Calm Calm - N/A   Clear
9:15 PM 39.2 °F - 30.2 °F 70% 30.15 in 10.0 mi Calm Calm - N/A   Clear
9:35 PM 39.2 °F - 30.2 °F 70% 30.16 in 10.0 mi Calm Calm - N/A   Clear
9:55 PM 46.4 °F - 26.6 °F 46% 30.16 in 10.0 mi Calm Calm - N/A   Clear
10:15 PM 42.8 °F - 28.4 °F 57% 30.15 in 10.0 mi Calm Calm - N/A   Clear
10:35 PM 37.4 °F - 30.2 °F 75% 30.15 in 10.0 mi Calm Calm - N/A   Clear
10:55 PM 37.4 °F - 30.2 °F 75% 30.15 in 10.0 mi Calm Calm - N/A   Clear
11:15 PM 41.0 °F - 30.2 °F 65% 30.15 in 10.0 mi Calm Calm - N/A   Clear
11:35 PM 37.4 °F - 30.2 °F 75% 30.16 in 10.0 mi Calm Calm - N/A   Clear
11:55 PM 37.4 °F - 30.2 °F 75% 30.16 in 10.0 mi Calm Calm - N/A   Clear